This is the latest recevied weather packets stored in our database for station/object OE5OVL-13. If no packets are shown the sender has not sent any weather packets the latest 10 day(s).
| Time | Temp. | Humidity | Pressure | Rain* | Wind** | Luminosity | Snow |
|---|---|---|---|---|---|---|---|
| 1777801822 | 23.33° C | 43% | 732.5 hPa | 0 mm | - | - | - |
| 1777800911 | 22.22° C | 45% | 731.4 hPa | 0 mm | - | - | - |
| 1777799999 | 21.11° C | 48% | 730.5 hPa | 0 mm | - | - | - |
| 1777799087 | 20.56° C | 50% | 729.4 hPa | 0 mm | - | - | - |
| 1777798175 | 19.44° C | 50% | 728.4 hPa | 0 mm | - | - | - |
| 1777796352 | 17.78° C | 51% | 726.4 hPa | 0 mm | - | - | - |
| 1777794529 | 16.67° C | 53% | 724.7 hPa | 0 mm | - | - | - |
| 1777793617 | 16.11° C | 53% | 724.2 hPa | 0 mm | - | - | - |
| 1777792705 | 15.56° C | 54% | 723.6 hPa | 0 mm | - | - | - |
| 1777791793 | 14.44° C | 54% | 722.7 hPa | 0 mm | - | - | - |
| 1777790881 | 13.89° C | 54% | 722.2 hPa | 0 mm | - | - | - |
| 1777789969 | 13.89° C | 56% | 721.8 hPa | 0 mm | - | - | - |
| 1777789058 | 13.33° C | 57% | 721.2 hPa | 0 mm | - | - | - |
| 1777752588 | 18.33° C | 33% | 726.9 hPa | 0 mm | - | - | - |
| 1777751676 | 18.89° C | 32% | 727.3 hPa | 0 mm | - | - | - |
| 1777750764 | 18.89° C | 33% | 727.2 hPa | 0 mm | - | - | - |
| 1777748941 | 20.56° C | 31% | 729.1 hPa | 0 mm | - | - | - |
| 1777748029 | 21.11° C | 29% | 729.9 hPa | 0 mm | - | - | - |
| 1777747117 | 21.67° C | 28% | 730.5 hPa | 0 mm | - | - | - |
| 1777746206 | 22.22° C | 27% | 731.4 hPa | 0 mm | - | - | - |
| 1777745294 | 23.89° C | 24% | 733.5 hPa | 0 mm | - | - | - |
| 1777744382 | 25° C | 22% | 734.8 hPa | 0 mm | - | - | - |
| 1777743471 | 27.22° C | 20% | 737.2 hPa | 0 mm | - | - | - |
| 1777742559 | 32.78° C | 15% | 743.2 hPa | 0 mm | - | - | - |
| 1777741647 | 39.44° C | 11% | 751.1 hPa | 0 mm | - | - | - |
* Rain latest hour (hover to see other rain measurements)
** Current wind speed in m/s (hover to see current wind gust speed)